Voltar ao catálogo

STARLINK-32689

AtivoComunicaçõesVLEO
NORAD 62440·PAYLOAD·🇺🇸 United States

Lançado Dec 29, 2024 de Vandenberg Space Force Base

Loading…

Próximas Passagens (próximas 24 horas)

TLE

AtualizadoSource: CelesTrak SupGP

Época: Sep 15, 2026, 02:04 UTC

1 62440C 24251J   26258.08659722 -.00054586  00000+0 -16130-2 0  2582
2 62440  53.1571 172.7776 0001338  86.3072 336.9305 15.34413942    14

Acompanhe STARLINK-32689 em tempo real com AllMySat

Download on the App Store